www.pogodaiklimat.ru

Погода и климат >> Архив погоды >> Россия >> Камчатский край >> Большерецк


ПОГОДА в Большерецке

  • Прогноз погоды в Большерецке
  • Монитор погоды в Большерецке

АРХИВ ПОГОДЫ в Большерецке

Время (UTC), дата Ветер
(напр.,м/с)
 
Видим.   Явления Облачность Т
(С)
Тd
(С)
f
(%)
Тe
(С)
Тes
(С)
Комфортность P
(гПа)
Po
(гПа)
Тmin
(С)
Tmax
(С)
R
(мм)
R24
(мм)
S
(см)
09 14.07 З 1 20 км 10/10 600 м
[Sc]
+7.8 +7.8 100 +7 +7 1017.2 1013.5 +11.0
12 14.07 Ю 1 200 м туман ?/? +6.9 +6.9 100 +6 +6 1017.1 1013.4
15 14.07 ЮЗ 1 200 м туман ?/? +5.8 +5.8 100 +4 +4 1017.0 1013.3
18 14.07 З 1 200 м туман ?/? +6.3 +6.3 100 +5 +5 1017.0 1013.3
21 14.07 СЗ 1 200 м туман {ливн. осадки} ?/? +7.4 +7.4 100 +6 +6 1016.7 1013.0 +5.7 0.5
00 15.07 СЗ 2 10 км {ливн. осадки, туман} 10/10 300 м
[St]
+9.0 +8.1 94 +7 +7 1016.2 1012.6
03 15.07 СЗ 2 10 км 10/10 300 м
[St]
+9.7 +7.8 88 +8 +8 1015.5 1011.8
06 15.07 СЗ 3 1000 м дымка 10/10 300 м
[St]
+9.4 +8.9 97 +7 +7 1015.2 1011.6
09 15.07 СЗ 3 1000 м дымка 10/10 300 м
[St]
+7.9 +7.9 100 +5 +5 1015.1 1011.4 +10.2
12 15.07 СЗ 2 1000 м дымка 10/10 300 м
[St]
+7.9 +7.9 100 +6 +6 1015.1 1011.4
15 15.07 СЗ 2 1000 м дымка 10/10 300 м
[St]
+7.8 +7.8 100 +6 +6 1014.9 1011.2
18 15.07 СЗ 2 500 м слаб. ливневой дождь {туман} туман ?/? +7.7 +7.7 100 +5 +5 1014.8 1011.1
21 15.07 СЗ 2 500 м туман {ливн. осадки} ?/? +8.5 +8.5 100 +6 +6 1015.0 1011.3 +7.7 0.7
00 16.07 З 2 20 км {ливн. осадки, туман} 9/9 300 м
[St]
+12.3 +11.1 92 +11 +13 1014.6 1011.0
03 16.07 СЗ 3 50 км 9/3 300 м
[St Ac trans Ci]
+13.1 +10.3 83 +12 +17 1014.0 1010.4
06 16.07 СЗ 5 50 км 8/3 300 м
[St Ci sp]
+11.8 +9.3 85 +9 +11 1013.8 1010.2
09 16.07 З 2 50 км 10/0
[Ci sp]
+9.8 +9.6 99 +8 +8 1014.1 1010.5 +13.4
12 16.07 СЗ 2 200 м туман ?/? +8.5 +8.5 100 +6 +6 1015.3 1011.6
15 16.07 СЗ 2 200 м туман ?/? +7.6 +7.6 100 +5 +5 1015.4 1011.7
18 16.07 СЗ 1 200 м туман ?/? +7.1 +7.1 100 +6 +6 1015.9 1012.2
21 16.07 СЗ 1 200 м туман {ливн. осадки} ?/? +8.0 +8.0 100 +7 +7 1016.1 1012.4 +7.0 0.4
00 17.07 СЗ 2 20 км {ливн. осадки, туман} 9/9 600 м
[Sc]
+11.7 +10.5 92 +10 +12 1016.1 1012.5
03 17.07 З 4 50 км 9/4 600 м
[Sc Ac trans]
+11.7 +9.0 83 +10 +13 1016.0 1012.4
06 17.07 З 3 500 м туман ?/? +9.1 +9.1 100 +6 +6 1015.9 1012.2
09 17.07 З 2 500 м туман ?/? +8.3 +8.3 100 +6 +6 1016.4 1012.7 +13.5
12 17.07 ЮЗ 1 500 м туман ?/? +7.5 +7.5 100 +6 +6 1017.2 1013.5
15 17.07 ЮЗ 1 500 м туман ?/? +7.3 +7.3 100 +6 +6 1017.4 1013.7
18 17.07 Ю 1 500 м туман ?/? +7.3 +7.3 100 +6 +6 1017.2 1013.5
21 17.07 ЮВ 2 500 м туман {ливн. осадки} ?/? +8.3 +8.3 100 +6 +6 1017.4 1013.7 +7.3 0.6
00 18.07 Ю 2 20 км {ливн. осадки, туман} 10/10 600 м
[Sc]
+11.7 +10.9 95 +10 +10 1016.9 1013.3
03 18.07 Ю 4 20 км 10/10 600 м
[Sc]
+13.9 +11.3 84 +12 +12 1016.9 1013.3
06 18.07 Ю 4 200 м слаб. дождь {туман} туман ?/? +10.2 +10.2 100 +7 +7 1017.0 1013.3
09 18.07 Ю 4 200 м туман {дождь} ?/? +10.3 +10.3 100 +7 +7 1017.4 1013.8 +13.9 0.5
12 18.07 Ю 4 200 м туман {дождь} ?/? +10.5 +10.5 100 +8 +8 1018.5 1014.8
15 18.07 Ю 4 200 м туман ?/? +10.4 +10.4 100 +8 +8 1018.9 1015.2
18 18.07 ЮВ 3 200 м туман ?/? +11.7 +11.7 100 +10 +10 1019.0 1015.4
21 18.07 Ю 4 500 м туман {дождь} ?/? +13.2 +13.2 100 +11 +11 1019.6 1015.9 +10.3 0.4
00 19.07 Ю 4 10 км слаб. дождь {туман} 10/10 300 м
[Frnb Ns]
+15.4 +14.4 94 +14 +14 1020.1 1016.5
03 19.07 Ю 4 10 км в посл. час дождь 10/10 300 м
[Frnb Ns]
+14.2 +14.2 100 +13 +13 1020.6 1017.0
06 19.07 Ю 3 200 м слаб. дождь {туман} туман ?/? +12.9 +12.9 100 +11 +11 1020.9 1017.3
09 19.07 Ю 3 200 м туман {дождь} ?/? +12.3 +12.3 100 +11 +11 1021.6 1018.0 +16.3 1
12 19.07 Ю 3 200 м слаб. дождь {туман} туман ?/? +12.7 +12.7 100 +11 +11 1021.9 1018.3
15 19.07 Ю 3 200 м слаб. дождь {туман} туман ?/? +12.7 +12.7 100 +11 +11 1021.7 1018.0
18 19.07 ЮВ 4 200 м слаб. дождь {туман} туман ?/? +13.3 +13.3 100 +11 +11 1020.9 1017.3
21 19.07 Ю 5 200 м сильн. дождь {туман} туман ?/? +13.0 +13.0 100 +11 +11 1021.1 1017.4 +12.0 6
00 20.07 Ю 6-10
{12}
200 м слаб. ливневой дождь туман ?/? +11.9 +11.9 100 +9 +9 1021.5 1017.8 +11.9
03 20.07 Ю 5-11
{11}
200 м слаб. ливневой дождь {туман} туман ?/? +11.7 +11.7 100 +9 +9 1021.6 1017.9
06 20.07 Ю 4-10
{11}
200 м слаб. ливневой дождь {туман} туман ?/? +11.4 +11.4 100 +9 +9 1021.2 1017.5
09 20.07 Ю 4-10
{10}
200 м ливневой дождь {туман} туман ?/? +10.4 +10.4 100 +8 +8 1021.3 1017.7 +13.1 26
12 20.07 Ю 4
{10}
200 м ливневой дождь {туман} туман ?/? +10.0 +10.0 100 +7 +7 1021.5 1017.8
15 20.07 Ю 4 200 м ливневой дождь {туман} туман ?/? +9.8 +9.8 100 +7 +7 1021.2 1017.5
18 20.07 Ю 4 200 м ливневой дождь {туман} ?/? +10.0 +10.0 100 +7 +7 1020.9 1017.2
21 20.07 Ю 4 200 м ливневой дождь {туман} туман ?/? +10.0 +10.0 100 +7 +7 1020.7 1017.0 +9.7 24
00 21.07 Ю 5 200 м слаб. ливневой дождь {туман} туман ?/? +9.9 +9.9 100 +7 +7 1019.6 1015.9
03 21.07 Ю 5 200 м слаб. ливневой дождь {туман} туман ?/? +9.9 +9.9 100 +7 +7 1018.8 1015.1
06 21.07 Ю 5 200 м слаб. дождь туман ?/? +10.0 +10.0 100 +7 +7 1017.7 1014.0

 

Местоположение метеостанции Большерецк (Камчатский край, Россия): широта 52.83 долгота 156.30 высота над уровнем моря 30 м.

В архиве по умолчанию представлена погода в Большерецке за последнюю неделю. Архивные данные за месяц целиком и за предыдущие месяцы, начиная с января 2011 года, Вы можете получить, выбрав интересующий диапазон дат из раскрывающегося списка и нажав кнопку "Ввод!".


*Определитесь, кто Вы:
робот инопланетянин человек

Внимание! Время в таблицах - всемирное. Для получения местного времени необходимо прибавить поправку, которая равна 12 ч.

Смотрите также архив погоды в соседних городах и на ближайших метеорологических станциях:

Погода в Начиках (Камчатский край, Россия) (99 км)
Погода в Сосновке (Камчатский край, Россия) (137 км)
Погода в Петропавловск-Камч. 2 (Камчатский край, Россия) (150 км)
Погода в Озерной (Камчатский край, Россия) (150 км)
Погода в Петропавловск-Камчатском (Камчатский край, Россия) (155 км)
Погода в Водопадной (Камчатский край, Россия) (161 км)
Погода в Петропавловском Маяке (Камчатский край, Россия) (161 км)
Погода в Соболево (Камчатский край, Россия) (166 км)
Погода в Пущино (Камчатский край, Россия) (188 км)
Погода на Мысе Лопатка (Камчатский край, Россия) (219 км)

Пояснения к столбцам:

Ветер - указаны скорость ветра в м/с - средняя за 10 мин, порывы в срок и между сроками (в фигурных скобках) и направление, откуда дует ветер: С - северный, СВ - северо-восточный, В - восточный, ЮВ - юго-восточный, Ю - южный, ЮЗ - юго-западный, З - западный, СЗ - северо-западный.
Видимость - горизонтальная дальность видимости в метрах или километрах. При видимости от 1 до 10 км при отсутствии осадков обычно наблюдается дымка, при ухудшении видимости до 1 км и менее - туман. В сухую погоду видимость может ухудшаться дымом, пылью или мглою.
Явления - указаны атмосферные явления, наблюдавшиеся в срок или в последний час перед сроком; фигурными скобками обозначены явления, наблюдавшиеся между сроками (за 1-3 часа до срока); квадратными скобками обозначены град или гололедные отложения с указанием их диаметра в мм.
Облачность - указаны через наклонную черту общая и нижняя облачность в баллах и высота нижней границы облаков в метрах; квадратными скобками обозначены формы облаков: Ci - перистые, Cs - перисто-слоистые, Cc - перисто-кучевые, Ac - высококучевые, As - высокослоистые, Sc - слоисто-кучевые, Ns - слоисто-дождевые, Cu - кучевые, Cb - кучево-дождевые. Подробнее классификацию облаков см. в Атласе облаков (PDF).
T - Температура воздуха - температура, измеренная на высоте 2 м над землей.
Td - Температура точки росы - температура, при понижении до которой содержащийся в воздухе водяной пар достигнет насыщения.
f - Относительная влажность воздуха - влажноcть воздуха, измеренная на высоте 2 м над землей.
Te - Эффективная температура - температура, которую ощущает одетый по сезону человек в тени. Характеристика душности погоды. При расчете учитывается влияние влажности воздуха и скорости ветра на теплоощущения человека.
Tes - Эффективная температура на солнце - температура, которую ощущает человек, с поправкой на солнечный нагрев. Характеристика знойности погоды. Зависит от высоты солнца над горизонтом, облачности и скорости ветра. Ночью, в пасмурную погоду, а также при ветре 12 м/с и более поправка равна нулю.
P - Атмосферное давление - приведенное к уровню моря атмосферное давление.
Po - Атмосферное давление - измеренное на уровне метеостанции атмосферное давление.
Tmin - Минимальная температура - минимум температуры воздуха на высоте 2 м над землей.
Tmax - Максимальная температура - максимум температуры воздуха на высоте 2 м над землей.
R - Количество осадков - Количество выпавших осадков за период времени, мм. При наведении курсора мыши на число - период времени, за который выпало указанное количество осадков.
R24 - Количество осадков - Количество выпавших осадков за 24 часа, мм.
S - Снежный покров - Высота снежного покрова, см. При наведении курсора мыши на число - состояние снежного покрова и степень покрытия местности в баллах.